星链-5074 (STARLINK-5074 )

导读 | 星芒AI

STARLINK-5074 是 SpaceX Starlink 卫星互联网项目中的一颗低轨卫星,属于第二代星链卫星群。它旨在为全球用户提供高速、低延迟的宽带互联网服务,主要服务于偏远和网络基础设施薄弱的地区。该卫星采用先进通信技术,支持高频段传输,并具备自主避障能力,以确保在轨安全运行。作为星链计划的重要组成部分,STARLINK-5074 有助于提升全球互联网覆盖范围和连接质量。

基本信息
目录编号:
55438
目录名称:
STARLINK-5074
国际标识:
2023-014AZ
轨道中心:
EARTH
卫星名称:
星链-5074
卫星全名:
星链-5074 (STARLINK-5074 )
卫星状态:
在轨 (已飞行1055 天)
发射日期:
2023-01-31 UTC
国别 :
美国 (US)
星等 :
--
轨道信息
数据来源 国际轨道数据 AOE轨道数据
星历时间 2025-12-21T11:17:08+0800
6小时前
查看轨道信息
2025-12-16T15:00:00+0800
5天前
查看轨道信息
半长轴 6950.204km 6950.196km
偏心率 0.0002286 0.0004297
轨道倾角 69.999° 70.002°
近地点辐角 247.386° 286.727°
升交点赤经 262.341° 274.553°
平近点角 112.706° 225.683°
近地点 570.478km 569.074km
远地点 573.656km 575.048km
周期 96.107分钟 96.107分钟
每日圈数 14.983266 14.983293
详细信息
固有亮度:
5
最大亮度:
2.5
卫星平台:
Starlink v1.5
覆盖范围:
全球
运营商:
太空探索技术公司
运营商所在国:
美国
制造商(研发单位):
太空探索技术公司
制造商所在国:
美国
使用方式:
暂无
卫星简介
星链(Starlink)计划是由太空探索技术公司(SpaceX)提出的一个巨型低轨卫星互联网星座项目,计划在2019年至2024年间在太空搭建由约1.2万颗卫星组成的“星链”网络,其中1584颗将部署在地球上空550千米处的近地轨道,并从2020年开始工作。该卫星仍在工作。
2D轨道图
3D轨道图
轨道高度分析图
轨道倾角分析图
轨道综合分析图
查看轨道综合分析图